Bastrop, LA

11:22 PM CDT on July 25, 2017 (GMT -0500)
Bastrop

Weather History for KBQP - April, 2014

Change the Weather History Date:

Sunday, April 27, 2014

  Actual Average (KMLU) Record (KMLU)
Temperature  
Mean Temperature 79 °F -  
Max Temperature 87 °F 79 °F 95 °F (1987)
Min Temperature 71 °F 57 °F 45 °F (1992)
Cooling Degree Days 14    
Growing Degree Days 29 (Base 50)    
Moisture  
Dew Point 67 °F    
Average Humidity 70    
Maximum Humidity 86    
Minimum Humidity 45    
Precipitation  
Precipitation 0.00 in - - ()
Sea Level Pressure  
Sea Level Pressure 29.68 in    
Wind  
Wind Speed 9 mph (SSE)    
Max Wind Speed 21 mph    
Max Gust Speed 33 mph    
Visibility 10 miles    
Events Rain , Thunderstorm    
Averages and records for this station are not official NWS values.
T = Trace of Precipitation, MM = Missing Value Source: NWS Daily Summary

Daily Weather History Graph

Daily Weather History Graph

Search for Another Location

Airport or City:

Trip Planner

Search our weather history database for the weather conditions in past years. The results will help you decide how hot, cold, wet, or windy it might be!

Date:

Astronomy

Apr. 27, 2014 Rise Set
Actual Time 6:24 AM CDT 7:46 PM CDT
Civil Twilight 5:58 AM CDT 8:12 PM CDT
Nautical Twilight 5:27 AM CDT 8:43 PM CDT
Astronomical Twilight 4:55 AM CDT 9:15 PM CDT
Moon 5:18 AM CDT (4/27) 6:25 PM CDT (4/27)
Length of Visible Light 14h 13m
Length of Day
13h 21m
Waning Crescent, 3% of the Moon is Illuminated
Apr 27
Waning Crescent
Apr 29
New
May 6
First Quarter
May 14
Full
May 21
Last Quarter

Hourly Weather History & Observations

Time (CDT) Temp. Heat Index Dew Point Humidity Pressure Visibility Wind Dir Wind Speed Gust Speed Precip Events Conditions
12:15 AM 74.8 °F - 64.8 °F 71% 29.83 in 10.0 mi SSE 4.6 mph - N/A   Clear
12:35 AM 74.7 °F - 65.1 °F 72% 29.82 in 10.0 mi South 5.8 mph - N/A   Clear
1:15 AM 73.8 °F - 65.5 °F 75% 29.81 in 10.0 mi SSE 5.8 mph - N/A   Clear
1:35 AM 73.8 °F - 65.8 °F 76% 29.80 in 10.0 mi SSE 3.5 mph - N/A   Clear
1:55 AM 73.8 °F - 66.2 °F 77% 29.80 in 10.0 mi SSE 8.1 mph - N/A   Clear
2:15 AM 73.4 °F - 66.2 °F 78% 29.79 in 10.0 mi SSE 4.6 mph - N/A   Clear
2:35 AM 72.9 °F - 66.2 °F 80% 29.78 in 10.0 mi SSE 6.9 mph - N/A   Clear
2:55 AM 73.0 °F - 66.2 °F 79% 29.78 in 10.0 mi SSE 5.8 mph - N/A   Clear
3:15 AM 72.9 °F - 66.4 °F 80% 29.79 in 10.0 mi SSE 5.8 mph - N/A   Clear
3:35 AM 72.9 °F - 66.7 °F 81% 29.78 in 10.0 mi SSE 4.6 mph - N/A   Clear
3:55 AM 72.5 °F - 66.7 °F 82% 29.78 in 10.0 mi SSE 3.5 mph - N/A Rain Light Rain
4:15 AM 71.8 °F - 66.7 °F 84% 29.78 in 10.0 mi SSE 3.5 mph - N/A Thunderstorm Scattered Clouds
4:35 AM 71.6 °F - 66.6 °F 84% 29.78 in 10.0 mi SSE 4.6 mph - N/A Thunderstorm Clear
4:55 AM 72.0 °F - 66.6 °F 83% 29.77 in 10.0 mi SSE 6.9 mph - N/A   Mostly Cloudy
5:15 AM 72.0 °F - 66.6 °F 83% 29.77 in 10.0 mi SSE 6.9 mph - N/A   Overcast
5:35 AM 72.0 °F - 66.7 °F 84% 29.77 in 10.0 mi SSE 10.4 mph 16.1 mph N/A Thunderstorm Overcast
5:55 AM 71.8 °F - 66.7 °F 84% 29.76 in 10.0 mi SSE 6.9 mph - N/A Thunderstorm Overcast
6:15 AM 71.8 °F - 67.1 °F 85% 29.76 in 10.0 mi South 8.1 mph 18.4 mph N/A   Overcast
6:35 AM 71.6 °F - 67.1 °F 86% 29.76 in 10.0 mi South 5.8 mph - N/A   Overcast
6:55 AM 71.8 °F - 67.3 °F 86% 29.76 in 10.0 mi South 6.9 mph - N/A   Overcast
7:15 AM 71.8 °F - 67.5 °F 86% 29.76 in 10.0 mi South 8.1 mph - N/A Thunderstorm Overcast
7:35 AM 72.0 °F - 67.6 °F 86% 29.74 in 10.0 mi South 9.2 mph 17.3 mph N/A   Mostly Cloudy
7:55 AM 72.9 °F - 68.0 °F 85% 29.74 in 10.0 mi South 10.4 mph 17.3 mph N/A   Scattered Clouds
8:15 AM 73.4 °F - 68.0 °F 83% 29.75 in 10.0 mi SSE 11.5 mph 17.3 mph N/A   Mostly Cloudy
8:35 AM 73.8 °F - 67.8 °F 82% 29.75 in 10.0 mi SSE 9.2 mph 18.4 mph N/A   Overcast
8:55 AM 74.3 °F - 68.0 °F 81% 29.75 in 10.0 mi SSE 10.4 mph - N/A   Overcast
9:15 AM 74.8 °F - 68.0 °F 79% 29.74 in 10.0 mi SSE 8.1 mph - N/A   Overcast
9:35 AM 76.6 °F - 68.4 °F 75% 29.74 in 10.0 mi SSE 8.1 mph - N/A   Overcast
9:55 AM 76.6 °F - 67.8 °F 74% 29.74 in 10.0 mi SSE 12.7 mph 21.9 mph N/A   Overcast
10:15 AM 77.2 °F - 68.0 °F 73% 29.72 in 10.0 mi SSE 11.5 mph 17.3 mph N/A   Overcast
10:35 AM 79.2 °F - 68.4 °F 69% 29.71 in 10.0 mi SE 12.7 mph 18.4 mph N/A   Mostly Cloudy
10:55 AM 80.2 °F 82.7 °F 67.6 °F 65% 29.71 in 10.0 mi South 11.5 mph 25.3 mph N/A   Mostly Cloudy
11:15 AM 81.3 °F 84.0 °F 67.8 °F 63% 29.70 in 10.0 mi South 15.0 mph 23.0 mph N/A   Mostly Cloudy
11:35 AM 81.5 °F 83.9 °F 67.1 °F 61% 29.69 in 10.0 mi South 17.3 mph 28.8 mph N/A   Scattered Clouds
11:55 AM 82.9 °F 85.8 °F 67.8 °F 60% 29.69 in 10.0 mi SSE 11.5 mph 23.0 mph N/A   Scattered Clouds
12:35 PM 82.4 °F 85.4 °F 68.0 °F 62% 29.69 in 10.0 mi South 15.0 mph 25.3 mph N/A   Overcast
12:55 PM 82.0 °F 85.1 °F 68.2 °F 63% 29.69 in 10.0 mi South 11.5 mph 20.7 mph N/A   Overcast
1:15 PM 82.8 °F 85.8 °F 68.2 °F 61% 29.68 in 10.0 mi South 9.2 mph 19.6 mph N/A   Overcast
1:35 PM 84.2 °F 87.3 °F 68.2 °F 58% 29.67 in 10.0 mi SSE 13.8 mph 20.7 mph N/A   Mostly Cloudy
1:55 PM 84.2 °F 87.3 °F 68.0 °F 58% 29.66 in 10.0 mi South 9.2 mph 18.4 mph N/A   Overcast
2:15 PM 85.1 °F 88.2 °F 68.0 °F 56% 29.65 in 10.0 mi South 12.7 mph 23.0 mph N/A   Overcast
2:35 PM 84.4 °F 87.3 °F 67.6 °F 57% 29.65 in 10.0 mi South 12.7 mph 24.2 mph N/A   Overcast
2:55 PM 86.2 °F 89.4 °F 67.6 °F 54% 29.63 in 10.0 mi South 12.7 mph 25.3 mph N/A   Mostly Cloudy
3:15 PM 86.7 °F 90.3 °F 68.4 °F 54% 29.62 in 10.0 mi SE 9.2 mph 18.4 mph N/A   Mostly Cloudy
3:35 PM 86.9 °F 90.3 °F 67.8 °F 53% 29.61 in 10.0 mi South 13.8 mph 20.7 mph N/A   Mostly Cloudy
3:55 PM 86.5 °F 89.3 °F 67.1 °F 52% 29.60 in 10.0 mi South 11.5 mph 19.6 mph N/A   Mostly Cloudy
4:15 PM 86.5 °F 88.4 °F 65.3 °F 49% 29.59 in 10.0 mi South 16.1 mph 23.0 mph N/A   Mostly Cloudy
4:35 PM 86.0 °F 87.3 °F 64.2 °F 48% 29.59 in 10.0 mi South 13.8 mph 24.2 mph N/A   Scattered Clouds
5:15 PM 86.4 °F 87.3 °F 63.1 °F 46% 29.58 in 10.0 mi SSE 9.2 mph 18.4 mph N/A   Mostly Cloudy
5:35 PM 87.4 °F 88.5 °F 63.5 °F 45% 29.57 in 10.0 mi South 18.4 mph 27.6 mph N/A   Scattered Clouds
5:55 PM 86.9 °F 87.8 °F 63.0 °F 45% 29.56 in 10.0 mi South 19.6 mph 33.4 mph N/A   Scattered Clouds
6:15 PM 86.2 °F 87.6 °F 64.4 °F 48% 29.56 in 10.0 mi South 16.1 mph 31.1 mph N/A   Clear
6:35 PM 85.1 °F 86.9 °F 65.3 °F 51% 29.55 in 10.0 mi South 20.7 mph 32.2 mph N/A   Clear
6:50 PM 84.4 °F 86.3 °F 65.5 °F 53% 29.55 in 10.0 mi South 11.5 mph 23.0 mph N/A   Clear
7:15 PM 83.1 °F 85.7 °F 67.1 °F 58% 29.56 in 10.0 mi South 16.1 mph 20.7 mph N/A   Scattered Clouds
7:35 PM 81.5 °F 84.4 °F 68.2 °F 64% 29.57 in 10.0 mi South 17.3 mph 25.3 mph N/A   Scattered Clouds
7:55 PM 80.4 °F 83.4 °F 68.9 °F 68% 29.58 in 10.0 mi South 13.8 mph 20.7 mph N/A   Mostly Cloudy
8:15 PM 79.7 °F - 69.1 °F 70% 29.59 in 10.0 mi ESE 10.4 mph 17.3 mph N/A   Mostly Cloudy
8:35 PM 79.2 °F - 69.3 °F 72% 29.59 in 10.0 mi SSE 9.2 mph 18.4 mph N/A   Mostly Cloudy
8:55 PM 78.8 °F - 69.3 °F 72% 29.58 in 10.0 mi SSE 10.4 mph 17.3 mph N/A   Mostly Cloudy
9:15 PM 78.3 °F - 69.1 °F 73% 29.60 in 10.0 mi South 12.7 mph 20.7 mph N/A   Mostly Cloudy
9:35 PM 78.3 °F - 69.3 °F 74% 29.60 in 10.0 mi South 12.7 mph 21.9 mph N/A   Overcast
9:55 PM 77.9 °F - 69.3 °F 75% 29.62 in 10.0 mi South 12.7 mph 20.7 mph N/A   Overcast
10:15 PM 77.5 °F - 69.1 °F 75% 29.62 in 10.0 mi South 11.5 mph 20.7 mph N/A   Overcast
10:35 PM 77.2 °F - 68.9 °F 76% 29.61 in 10.0 mi South 12.7 mph 19.6 mph N/A   Mostly Cloudy
10:55 PM 77.2 °F - 68.7 °F 75% 29.61 in 10.0 mi South 9.2 mph 21.9 mph N/A   Overcast
11:15 PM 77.2 °F - 68.2 °F 74% 29.61 in 10.0 mi South 9.2 mph 20.7 mph N/A   Overcast
11:35 PM 77.0 °F - 68.0 °F 74% 29.60 in 10.0 mi South 11.5 mph 19.6 mph N/A   Overcast
11:55 PM 77.0 °F - 68.0 °F 74% 29.60 in 10.0 mi South 9.2 mph 21.9 mph N/A   Overcast